Location: Saluda
(35.2377°N, 82.3468°W)
Time: 12:55:02
(UTC+00:00)

Transit 4A - All Passes

Search period start: 05 October 2022 00:00
Search period end: 15 October 2022 00:00
Orbit: 870 x 974 km, 66.8° (Epoch: 04 October)

Date Brightness Start Highest point End Pass type
(mag) Time Alt. Az. Time Alt. Az. Time Alt. Az.
05 Oct - 01:58:23 10° S 02:04:11 41° ESE 02:09:52 10° NE night (unlit)
05 Oct - 03:45:15 10° WSW 03:50:36 30° NW 03:55:51 10° N night (unlit)
05 Oct - 11:04:48 10° N 11:09:34 25° NE 11:14:17 10° ESE visible
05 Oct - 12:50:33 10° NW 12:56:03 45° WSW 13:01:32 10° S daylight
06 Oct - 02:07:10 10° SSW 02:13:20 64° ESE 02:19:21 10° NNE night (unlit)
06 Oct - 03:55:36 10° W 04:00:06 21° NW 04:04:32 10° N night (unlit)
06 Oct - 11:13:37 10° N 11:19:00 37° ENE 11:24:20 10° ESE daylight
06 Oct - 13:00:14 10° NW 13:05:07 28° WSW 13:09:59 10° SSW daylight
07 Oct - 00:34:43 10° ESE 00:36:58 12° ESE 00:39:12 10° E night (unlit)
07 Oct - 02:16:17 10° SSW 02:22:32 85° WNW 02:28:38 10° NNE night (unlit)
07 Oct - 04:06:33 10° WNW 04:09:42 14° NW 04:12:49 10° NNW night (unlit)
07 Oct - 11:22:36 10° NNW 11:28:21 57° ENE 11:34:02 10° SE daylight
07 Oct - 13:10:22 10° WNW 13:14:07 18° WSW 13:17:53 10° SW daylight
08 Oct - 00:41:36 10° SSE 00:45:56 20° ESE 00:50:13 10° ENE visible
08 Oct - 02:25:42 10° SW 02:31:48 57° WNW 02:37:47 10° NNE visible
08 Oct - 09:47:40 10° NNE 09:50:26 13° NE 09:53:10 10° ENE visible
08 Oct - 11:31:45 10° NNW 11:37:36 87° ENE 11:43:25 10° SSE daylight
08 Oct - 13:22:14 10° W 13:23:03 10° WSW 13:23:54 10° WSW daylight
09 Oct - 00:49:36 10° SSE 00:54:59 31° ESE 01:00:14 10° NE visible
09 Oct - 02:35:26 10° SW 02:41:09 38° WNW 02:46:46 10° N visible
09 Oct - 09:55:53 10° N 10:00:03 20° NE 10:04:10 10° E visible
09 Oct - 11:41:04 10° NW 11:46:48 61° WSW 11:52:29 10° SSE daylight
10 Oct - 00:58:08 10° S 01:04:04 48° ESE 01:09:53 10° NE visible
10 Oct - 02:45:31 10° WSW 02:50:36 26° NW 02:55:36 10° N visible
10 Oct - 10:04:32 10° N 10:09:33 29° NE 10:14:31 10° ESE visible
10 Oct - 11:50:34 10° NW 11:55:55 38° WSW 12:01:13 10° S daylight
11 Oct - 01:07:01 10° SSW 01:13:14 74° ESE 01:19:17 10° NNE visible
11 Oct - 02:56:03 10° W 03:00:08 18° NW 03:04:10 10° N visible
11 Oct - 10:13:25 10° NNW 10:18:57 43° ENE 10:24:26 10° SE visible
11 Oct - 12:00:23 10° NW 12:04:57 24° WSW 12:09:30 10° SSW daylight
11 Oct - 23:33:37 10° SE 23:36:47 14° ESE 23:39:56 10° ENE visible
12 Oct - 01:16:15 10° SSW 01:22:27 74° WNW 01:28:31 10° NNE visible
12 Oct - 03:07:22 10° WNW 03:09:46 12° NW 03:12:10 10° NNW visible
12 Oct - 08:40:09 10° NE 08:40:48 10° NE 08:41:25 10° NE visible
12 Oct - 10:22:28 10° NNW 10:28:15 66° ENE 10:34:01 10° SE visible
12 Oct - 12:10:47 10° WNW 12:13:56 15° WSW 12:17:04 10° SW daylight
12 Oct - 23:41:02 10° SSE 23:45:46 23° ESE 23:50:26 10° NE visible
13 Oct - 01:25:46 10° SW 01:31:45 49° WNW 01:37:37 10° NNE visible
13 Oct - 08:47:09 10° NNE 08:50:28 15° NE 08:53:47 10° E visible
13 Oct - 10:31:40 10° NNW 10:37:30 82° WSW 10:43:18 10° SSE visible
13 Oct - 23:49:14 10° S 23:54:50 36° ESE 00:00:18 10° NE visible
14 Oct - 01:35:37 10° WSW 01:41:08 33° NW 01:46:33 10° N visible
14 Oct - 08:55:33 10° N 09:00:03 22° NE 09:04:30 10° ESE visible
14 Oct - 10:41:02 10° NW 10:46:39 52° WSW 10:52:16 10° S visible
